Content
SEND FEEDBACK

Daily
Averages
Monthly
Summary
United States of America

BOYNE FALLS, MICHIGAN


Home > North America > United States > Michigan
Elevation: 715 feet     Latitude: 45 10N     Longitude: 084 55W

WEATHER
 
SELECT A DAY
Number of Records: 209,317;   Date Range: 3/26/98 - 9/16/14
 
SHARE

PRINT THIS DATA

[ ← Previous Day ]
WEATHER ALMANAC - FEBRUARY 13, 2013
[ Next Day → ]
[ °C ]   °F
Weather ElementAverageHighLow
Temperature28.3 °F34 °F (1:53 pm)21.9 °F (1:53 am)
Dewpoint23.7 °F27 °F (9:53 pm)19 °F (1:53 am)
Humidity83 %89 % (1:53 am)70 % (3:53 pm)
Barometer29.71 in29.82 in (1:53 am)29.65 in (12:03 pm)
Wind Speed9.2 mph18.4 mph (10:53 am)
Wind Gust27.6 mph (10:53 am)
Weather ElementAverage
Visibility8.3 mi
Wind DirectionSW (219.6 °)

Weather ElementTotal
Precipitation---
Heating Degree Days37.1 (Base 65)
Averaged from 28 records on February 13, 2013
WEATHER CONDITIONS BREAKOUT
WIND DIRECTION BREAKOUT
WEATHER BY HOUR - FEBRUARY 13, 2013
[ °C ]   °F
Local TimeTemperatureDewpointHumidityBarometerVisibilityWind DirectionWind SpeedGust SpeedPrecipitationEventsConditions
1:53 AM21.9 °F19.0 °F89 %29.82 in10.0 miSW (220°)9.2 mphOvercast
2:53 AM23.0 °F19.9 °F88 %29.81 in10.0 miSSW (210°)8.1 mphOvercast
3:53 AM23.0 °F19.9 °F88 %29.79 in10.0 miSSW (210°)9.2 mphOvercast
4:53 AM23.0 °F19.9 °F88 %29.78 in10.0 miSSW (210°)9.2 mphOvercast
5:53 AM24.1 °F21.0 °F88 %29.77 in10.0 miSSW (210°)8.1 mphOvercast
6:53 AM25.0 °F21.0 °F85 %29.74 in9.0 miSW (220°)10.4 mphOvercast
7:53 AM25.0 °F21.9 °F88 %29.73 in7.0 miSW (220°)9.2 mphOvercast
8:24 AM24.8 °F21.2 °F86 %29.67 in6.0 miSSW (210°)6.9 mphScattered Clouds
8:53 AM26.1 °F23.0 °F88 %29.73 in6.0 miSW (230°)8.1 mphOvercast
9:03 AM26.6 °F23.0 °F86 %29.67 in6.0 miWSW (240°)10.4 mphOvercast
9:27 AM26.6 °F23.0 °F86 %29.66 in6.0 miSW (230°)11.5 mphScattered Clouds
9:41 AM26.6 °F23.0 °F86 %29.66 in6.0 miSW (230°)9.2 mphMostly Cloudy
9:53 AM28.0 °F24.1 °F85 %29.72 in6.0 miWSW (240°)11.5 mph19.6 mphOvercast
10:53 AM28.9 °F25.0 °F85 %29.71 in5.0 miWSW (250°)18.4 mph27.6 mphOvercast
11:53 AM30.9 °F25.0 °F79 %29.70 in7.0 miWSW (240°)12.7 mphMostly Cloudy
12:03 PM30.2 °F24.8 °F80 %29.65 in8.0 miWSW (240°)12.7 mph21.9 mphMostly Cloudy
12:53 PM33.1 °F25.0 °F72 %29.68 in10.0 miWest (260°)11.5 mphClear
1:53 PM34.0 °F26.1 °F73 %29.68 in10.0 miWSW (250°)9.2 mphOvercast
2:53 PM34.0 °F26.1 °F73 %29.68 in10.0 miSW (230°)11.5 mphOvercast
3:53 PM34.0 °F25.0 °F70 %29.68 in10.0 miWSW (240°)11.5 mphOvercast
4:53 PM33.1 °F26.1 °F75 %29.68 in10.0 miWSW (240°)10.4 mphOvercast
5:53 PM32.0 °F25.0 °F75 %29.69 in10.0 miWSW (240°)8.1 mphOvercast
6:53 PM30.0 °F25.0 °F82 %29.69 in10.0 miSW (230°)6.9 mphOvercast
7:53 PM28.9 °F26.1 °F89 %29.70 in9.0 miCalmOvercast
8:53 PM28.9 °F25.0 °F85 %29.70 in9.0 miSSW (210°)5.8 mphOvercast
9:53 PM30.0 °F27.0 °F88 %29.69 in8.0 miSSW (200°)4.6 mphOvercast
10:53 PM30.9 °F26.1 °F82 %29.69 in8.0 miSW (220°)8.1 mphOvercast
11:53 PM30.0 °F26.1 °F85 %29.68 in7.0 miSW (220°)4.6 mphOvercast
Hourly data recorded from KGLR, located miles away from Boyne Falls, Michigan







STORIES FROM OUR PARTNERS